Hamilton, OH

5:27 AM EDT on June 26, 2017 (GMT -0400)
Butler County Regional

Weather History for KHAO - December, 2012

Change the Weather History Date:

Thursday, December 6, 2012

  Actual Average (KLUK) Record (KLUK)
Temperature  
Mean Temperature 36 °F -  
Max Temperature 48 °F 46 °F 73 °F (1998)
Min Temperature 23 °F 27 °F 2 °F (1977)
Degree Days  
Heating Degree Days 30    
Moisture  
Dew Point 32 °F    
Average Humidity 78    
Maximum Humidity 96    
Minimum Humidity 56    
Precipitation  
Precipitation 0.04 in - - ()
Sea Level Pressure  
Sea Level Pressure 30.14 in    
Wind  
Wind Speed 2 mph (ESE)    
Max Wind Speed 6 mph    
Max Gust Speed -    
Visibility 10 miles    
Events Rain    
Averages and records for this station are not official NWS values.
T = Trace of Precipitation, MM = Missing Value Source: NWS Daily Summary

Daily Weather History Graph

Daily Weather History Graph

Search for Another Location

Airport or City:

Trip Planner

Search our weather history database for the weather conditions in past years. The results will help you decide how hot, cold, wet, or windy it might be!

Date:

Astronomy

Dec. 06, 2012 Rise Set
Actual Time 7:44 AM EST 5:14 PM EST
Civil Twilight 7:14 AM EST 5:44 PM EST
Nautical Twilight 6:40 AM EST 6:17 PM EST
Astronomical Twilight 6:08 AM EST 6:50 PM EST
Moon 12:01 AM EST (12/6) 12:38 PM EST (12/6)
Length of Visible Light 10h 30m
Length of Day
9h 30m
Waning Gibbous, 49% of the Moon is Illuminated
Dec 6
Waning Gibbous
Dec 13
New
Dec 20
First Quarter
Dec 28
Full
Jan 4
Last Quarter

Hourly Weather History & Observations

Time (EST) Temp. Windchill Dew Point Humidity Pressure Visibility Wind Dir Wind Speed Gust Speed Precip Events Conditions
12:53 AM 25.0 °F - 21.9 °F 88% 30.33 in 10.0 mi Calm Calm - N/A   Clear
1:53 AM 26.1 °F - 21.9 °F 84% 30.31 in 10.0 mi Calm Calm - N/A   Clear
2:53 AM 25.0 °F - 21.9 °F 88% 30.29 in 10.0 mi Calm Calm - N/A   Clear
3:53 AM 25.0 °F 19.3 °F 21.0 °F 85% 30.27 in 10.0 mi ENE 4.6 mph - N/A   Clear
4:53 AM 25.0 °F 19.3 °F 21.9 °F 88% 30.25 in 10.0 mi ENE 4.6 mph - N/A   Clear
5:53 AM 24.1 °F - 21.9 °F 91% 30.25 in 10.0 mi Calm Calm - N/A   Clear
6:53 AM 23.0 °F - 21.0 °F 92% 30.27 in 10.0 mi Calm Calm - N/A   Clear
7:53 AM 24.1 °F 19.7 °F 21.0 °F 88% 30.27 in 10.0 mi NNE 3.5 mph - N/A   Clear
8:53 AM 30.9 °F 26.2 °F 26.1 °F 82% 30.25 in 10.0 mi East 4.6 mph - N/A   Clear
9:53 AM 33.1 °F 30.0 °F 27.0 °F 78% 30.23 in 10.0 mi East 3.5 mph - N/A   Clear
10:53 AM 37.0 °F 33.3 °F 28.9 °F 73% 30.21 in 10.0 mi ESE 4.6 mph - N/A   Clear
11:53 AM 41.0 °F 38.0 °F 30.9 °F 67% 30.17 in 10.0 mi Variable 4.6 mph - N/A   Clear
12:53 PM 43.0 °F - 32.0 °F 65% 30.14 in 10.0 mi Calm Calm - N/A   Clear
1:53 PM 46.0 °F 43.1 °F 34.0 °F 63% 30.11 in 10.0 mi ESE 5.8 mph - N/A   Clear
2:53 PM 48.0 °F - 33.1 °F 56% 30.07 in 10.0 mi Variable 5.8 mph - N/A   Clear
3:53 PM 48.9 °F - 34.0 °F 56% 30.07 in 10.0 mi South 3.5 mph - N/A   Mostly Cloudy
4:53 PM 48.0 °F - 34.0 °F 58% 30.06 in 10.0 mi SSE 3.5 mph - N/A   Scattered Clouds
5:53 PM 46.9 °F - 35.1 °F 63% 30.06 in 10.0 mi South 3.5 mph - N/A   Mostly Cloudy
6:53 PM 48.0 °F - 36.0 °F 63% 30.06 in 10.0 mi Calm Calm - N/A   Overcast
7:50 PM 46.4 °F 45.2 °F 39.2 °F 76% 30.05 in 10.0 mi South 3.5 mph - 0.00 in   Overcast
7:53 PM 46.9 °F - 39.0 °F 74% 30.06 in 10.0 mi SSE 4.6 mph - 0.00 in   Overcast
8:30 PM 46.4 °F - 39.2 °F 76% 30.03 in 10.0 mi Calm Calm - 0.00 in   Overcast
8:53 PM 46.9 °F - 39.9 °F 77% 30.04 in 10.0 mi Calm Calm - 0.00 in   Overcast
9:53 PM 46.0 °F - 42.1 °F 86% 30.02 in 8.0 mi Calm Calm - 0.00 in Rain Light Rain
10:53 PM 46.0 °F - 44.1 °F 93% 30.01 in 8.0 mi Calm Calm - 0.03 in   Overcast
11:33 PM 46.4 °F - 44.6 °F 93% 29.99 in 7.0 mi Calm Calm - 0.00 in Rain Light Rain
11:53 PM 46.0 °F - 45.0 °F 96% 30.01 in 4.0 mi Calm Calm - 0.01 in Rain Light Rain